Regional Weather Roundup
Issued by NWS

Home | Current Version | Previous Version | Text Only | Print | Product List | Glossary On
Versions: 1 2 3 4 5 6 7 8 9 10 11 12 13 14 15 16 17 18 19 20 21 22 23 24 25 26 27 28 29 30 31 32 33 34 35 36 37 38 39 40 41 42 43 44 45 46 47 48 49 50
000
ASUS43 KDTX 200910
RWRMI
MICHIGAN HOURLY REGIONAL WEATHER ROUNDUP
NATIONAL WEATHER SERVICE DETROIT/PONTIAC MI
400 AM EST MON FEB 20 2017

NOTE: "FAIR" INDICATES FEW OR NO CLOUDS BELOW 12,000 FEET WITH NO
SIGNIFICANT WEATHER AND/OR OBSTRUCTION TO VISIBILITY.

MIZ047>049-052>055-059>063-066>070-074>076-081>083-201000-
SOUTHEAST LOWER MICHIGAN

CITY           SKY/WX    TMP DP  RH WIND       PRES   REMARKS
ADRIAN         CLOUDY    37  32  82 NE6       30.20S WCI  32
ALMA           MOCLDY    31  28  90 E5        30.22S WCI  26
ANN ARBOR      CLOUDY    32  29  88 NE3       30.20S
BAD AXE        CLOUDY    27  25  93 CALM      30.23S
CARO           CLOUDY    29  28  96 CALM      30.22S
DETROIT CITY   CLOUDY    36  31  82 N3        30.22S
DETROIT        MOCLDY    37  30  75 NE5       30.22S WCI  33
FLINT          PTCLDY    33  28  81 CALM      30.23R
GROSSE ILE     CLOUDY    36  31  82 NE6       30.21R WCI  31
HILLSDALE      CLOUDY    39  32  75 SE6       30.17S WCI  35
HOWELL         PTCLDY    33  28  80 CALM      30.21R

CITY           SKY/WX    TMP DP  RH WIND       PRES   REMARKS
JACKSON        CLOUDY    36  29  75 E6        30.19S WCI  31
LAMBERTVILLE   CLOUDY    40  34  79 CALM      30.20S
LANSING        PTCLDY    38  29  70 E6        30.20S WCI  33
LAPEER         FAIR      30  29  99 CALM      30.23S
MASON          PTCLDY    38  31  76 E3        30.19F
MONROE         PTCLDY    37  32  84 CALM      30.20S
MT. CLEMENS    CLOUDY    33  31  92 CALM      30.21S
PONTIAC        PTCLDY    30  25  81 CALM      30.21R
PORT HOPE        N/A     31  29  92 NW3       30.22R
PORT HURON     PTCLDY    28  27  93 CALM      30.23S
TRI CITIES     PTCLDY    31  29  92 E5        30.23F WCI  26
MIDLAND        FAIR      30  28  92 CALM      30.22F
TROY           CLOUDY    37  28  70 CALM      30.24S
SAGINAW HB     CLOUDY    32  28  86 CALM      30.23S
$$
MIZ043>046-050>051-056>058-064>065-071>073-077>080-201000-
SOUTHWEST LOWER MICHIGAN

CITY           SKY/WX    TMP DP  RH WIND       PRES   REMARKS
BATTLE CREEK   PTCLDY    35  29  78 CALM      30.18S
BENTON HARBOR  CLOUDY    36  28  73 SE5       30.15S WCI  32
BIG RAPIDS     PTCLDY    29  27  90 CALM      30.19S
COLDWATER      CLOUDY    33  30  90 E3        30.17S
FREMONT        FAIR      39  28  66 E3        30.17F
HOLLAND        CLOUDY    35  30  82 E3        30.17S
GRAND RAPIDS   PTCLDY    38  28  67 E6        30.17F WCI  33
IONIA          FAIR      36  30  79 NE6       30.18S WCI  31
KALAMAZOO      CLOUDY    36  27  69 CALM      30.17F
LUDINGTON      CLOUDY    33  30  89 E8        30.16F WCI  26
MARSHALL       CLOUDY    34  32  93 CALM      30.17S
MOUNT PLEASANT CLOUDY    29  28  95 CALM      30.22S
MUSKEGON       CLOUDY    39  29  67 E3        30.17F
SOUTH HAVEN    PTCLDY    38  29  69 E5        30.16S WCI  34
$$
MIZ016>042-201000-
NORTHERN LOWER MICHIGAN

CITY           SKY/WX    TMP DP  RH WIND       PRES   REMARKS
ALPENA         CLOUDY    31  30  96 SE3       30.26R
BEAVER ISLAND  CLOUDY    33  30  89 E8        30.21F WCI  26
BELLAIRE       CLOUDY    29  28  95 CALM      30.22F
CADILLAC       CLOUDY    31  26  81 CALM      30.18S
CHARLEVOIX     CLOUDY    33  29  85 SE6       30.25R WCI  28
FRANKFORT      PTCLDY    32  29  86 CALM      30.18R
GAYLORD        CLOUDY    33  25  72 CALM      30.20S
GRAYLING       PTCLDY    27  25  92 CALM      30.22F
HARBOR SPRINGS PTCLDY    28  28  96 NE7       30.22S WCI  21
HOUGHTON LAKE  PTCLDY    27  25  92 CALM      30.22R
MANISTEE       PTCLDY    31  28  89 E8        30.17S WCI  23
OSCODA         CLOUDY    28  25  90 CALM      30.24R
PELLSTON       CLOUDY    26  23  88 CALM      30.24R
ROGERS CITY    PTCLDY    33  31  92 SE3       30.26S
TRAVERSE CITY  PTCLDY    29  27  92 CALM      30.19F
$$
MIZ007>008-015-201000-
EASTERN UPPER MICHIGAN

CITY           SKY/WX    TMP DP  RH WIND       PRES   REMARKS
KINROSS        CLOUDY    31  27  85 E8        30.25R WCI  23
MACKINAC ISLAN CLOUDY    32  30  90 E10G16    30.24R WCI  24
NEWBERRY       PTCLDY    28  28  96 CALM      30.22R
S. S. MARIE    CLOUDY    32  27  81 CALM      30.26R
MUNISING         N/A     34  28  79 VRB6      30.19R WCI  29
$$
MIZ004>006-011>014-085-201000-
CENTRAL UPPER MICHIGAN

CITY           SKY/WX    TMP DP  RH WIND       PRES   REMARKS
MANISTIQUE     CLOUDY    32  30  95 E3        30.20S
ESCANABA       CLOUDY    29  28  96 NE5       30.18F WCI  24
MENOMINEE      CLOUDY    31  29  92 E5        30.16F WCI  26
SAWYER-GWINN   CLOUDY    33  28  83 S7        30.16S WCI  27
$$
MIZ001>003-009>011-084-201000-
WESTERN UPPER MICHIGAN

CITY           SKY/WX    TMP DP  RH WIND       PRES   REMARKS
IRON MOUNTAIN  CLEAR     31  26  82 CALM      30.14R
HOUGHTON       CLOUDY    34  29  82 E9        30.11S WCI  27
COPPER HARBOR    N/A     36  31  82 S10G21    30.12F WCI  28
IRONWOOD       PTCLDY    44  32  62 SE12      30.01S
$$

ABBREVIATIONS USED IN REMARKS
   TC - TEMPERATURE IN CELSIUS
  WCI - WIND CHILL INDEX
   HX - HEAT INDEX
  VSB - VISIBILITY





USA.gov is the U.S. government's official web portal to all federal, state and local government web resources and services.